Temp
-15 -15 -15 -15 -16 -15 -15 -15 -16 -16 -17 -17 -17 -18 -18 -18 -18 -18 -19 -19 -19 -19 -19 -20 -21 -21 -22 -22 -23 -23 -23 -23 -23 -23 -23 -23 -23 -23 -23 -22 -22 -22 -21
-15 -16 -16 -16 -15 -15 -16 -17 -17 -18 -18 -18 -18 -18 -18 -18 -18 -19 -19 -19 -20 -20 -20 -21 -22 -22 -23 -23 -23 -24 -24 -24 -24 -25 -24 -24 -24 -24 -24 -23 -23 -23 -22
-15 -15 -16 -16 -16 -16 -16 -17 -17 -18 -18 -18 -19 -19 -19 -20 -20 -20 -20 -20 -20 -20 -21 -22 -23 -23 -23 -24 -24 -24 -24 -25 -25 -25 -25 -24 -25 -24 -24 -24 -24 -24 -23
-16 -16 -16 -16 -16 -17 -17 -17 -18 -18 -19 -19 -19 -20 -20 -21 -21 -21 -20 -21 -21 -22 -22 -23 -24 -24 -24 -24 -24 -24 -25 -25 -25 -25 -25 -25 -25 -24 -24 -24 -24 -24 -24
-17 -17 -17 -17 -17 -18 -18 -19 -19 -19 -19 -19 -20 -20 -21 -21 -21 -21 -22 -22 -22 -23 -24 -24 -24 -24 -24 -24 -25 -25 -25 -26 -26 -26 -26 -25 -25 -25 -25 -24 -24 -24 -24
-17 -17 -17 -17 -17 -18 -19 -19 -19 -19 -19 -20 -20 -21 -21 -21 -21 -22 -22 -23 -23 -24 -24 -25 -25 -25 -25 -25 -25 -26 -26 -26 -26 -26 -26 -26 -26 -26 -26 -25 -25 -25 -24
-18 -17 -18 -18 -19 -19 -19 -19 -20 -19 -20 -20 -21 -21 -21 -22 -22 -23 -23 -24 -25 -25 -25 -25 -26 -26 -26 -26 -26 -26 -26 -26 -26 -26 -26 -26 -26 -26 -26 -25 -25 -25 -25
-17 -18 -18 -19 -19 -19 -20 -19 -19 -20 -21 -21 -21 -21 -22 -22 -23 -23 -24 -25 -25 -25 -26 -26 -26 -26 -26 -26 -26 -26 -26 -26 -26 -26 -26 -26 -26 -26 -26 -26 -26 -26 -25
-19 -18 -19 -19 -19 -20 -19 -20 -20 -20 -20 -21 -22 -22 -23 -23 -23 -24 -24 -25 -26 -26 -26 -27 -26 -26 -27 -27 -27 -27 -26 -26 -26 -26 -26 -26 -26 -26 -26 -26 -26 -26 -26
-18 -19 -20 -20 -20 -19 -19 -19 -20 -21 -21 -22 -22 -23 -23 -24 -24 -25 -25 -26 -26 -26 -27 -27 -27 -27 -27 -27 -27 -26 -27 -27 -27 -27 -27 -27 -27 -27 -27 -27 -27 -27 -27
-19 -20 -20 -19 -19 -19 -20 -20 -21 -21 -22 -23 -24 -24 -24 -25 -25 -25 -26 -26 -26 -27 -27 -27 -27 -27 -27 -27 -27 -27 -26 -26 -26 -27 -27 -27 -27 -28 -28 -28 -28 -28 -28
-20 -20 -20 -20 -21 -21 -21 -22 -22 -23 -23 -24 -25 -25 -25 -25 -26 -26 -26 -26 -26 -27 -27 -27 -27 -27 -27 -27 -27 -26 -26 -26 -26 -27 -27 -27 -27 -28 -28 -28 -29 -29 -28
-21 -21 -22 -22 -22 -22 -22 -23 -24 -24 -25 -26 -26 -26 -26 -26 -26 -26 -26 -27 -27 -27 -27 -27 -27 -28 -28 -27 -27 -27 -26 -26 -26 -27 -27 -27 -27 -28 -28 -29 -29 -29 -29
-21 -21 -22 -22 -22 -23 -23 -24 -25 -26 -27 -27 -27 -27 -27 -27 -26 -27 -27 -27 -27 -27 -27 -27 -28 -28 -28 -28 -27 -27 -27 -27 -26 -27 -27 -27 -27 -27 -28 -28 -29 -29 -28
-22 -22 -22 -23 -24 -24 -25 -26 -27 -28 -27 -27 -28 -28 -27 -27 -27 -27 -27 -27 -27 -28 -28 -28 -28 -28 -28 -28 -27 -28 -27 -27 -27 -27 -27 -27 -27 -27 -27 -28 -28 -28 -27
-22 -23 -24 -25 -25 -26 -26 -28 -28 -28 -28 -28 -28 -28 -28 -27 -27 -27 -27 -27 -28 -28 -28 -28 -28 -28 -28 -28 -28 -27 -28 -28 -28 -28 -28 -27 -27 -27 -28 -28 -28 -28 -28
-24 -25 -25 -25 -26 -26 -27 -28 -29 -29 -29 -28 -28 -28 -28 -27 -27 -27 -27 -28 -28 -28 -28 -28 -28 -28 -28 -28 -28 -28 -28 -28 -28 -28 -28 -28 -28 -28 -28 -28 -28 -28 -28
-25 -25 -25 -26 -26 -27 -28 -30 -30 -29 -29 -29 -29 -28 -28 -27 -27 -27 -27 -27 -28 -28 -28 -28 -28 -28 -28 -28 -28 -28 -28 -28 -29 -29 -29 -29 -29 -28 -28 -28 -28 -28 -28
-25 -26 -26 -27 -28 -28 -29 -30 -30 -29 -29 -29 -28 -28 -27 -27 -27 -27 -28 -28 -28 -28 -28 -28 -28 -28 -28 -28 -28 -29 -29 -30 -30 -30 -30 -30 -29 -29 -29 -29 -29 -29 -29
-26 -26 -27 -27 -28 -28 -29 -29 -29 -29 -28 -28 -28 -27 -27 -27 -28 -28 -28 -28 -28 -28 -28 -28 -28 -29 -29 -29 -29 -29 -30 -31 -31 -31 -31 -31 -31 -31 -31 -31 -31 -30 -30
-26 -26 -27 -27 -27 -28 -28 -28 -28 -28 -28 -28 -28 -27 -28 -28 -28 -28 -28 -28 -28 -28 -29 -29 -29 -29 -29 -29 -30 -30 -31 -31 -32 -32 -32 -32 -32 -32 -32 -31 -31 -31 -31
-26 -26 -26 -27 -27 -27 -27 -27 -27 -28 -28 -28 -28 -28 -28 -28 -28 -28 -29 -29 -29 -29 -29 -29 -29 -29 -29 -30 -30 -30 -31 -32 -32 -32 -32 -32 -32 -32 -32 -32 -32 -32 -32
-26 -26 -27 -27 -27 -27 -27 -27 -27 -27 -28 -28 -28 -28 -28 -28 -28 -29 -29 -29 -29 -29 -29 -29 -29 -29 -30 -30 -30 -31 -31 -32 -32 -32 -32 -32 -32 -32 -32 -32 -32 -32 -32
-26 -27 -27 -27 -27 -27 -27 -27 -27 -27 -28 -28 -28 -28 -28 -29 -29 -29 -29 -29 -29 -29 -29 -29 -29 -30 -30 -30 -30 -31 -31 -32 -32 -32 -32 -32 -32 -33 -33 -33 -33 -33 -33
-27 -28 -28 -28 -28 -28 -28 -28 -28 -28 -28 -28 -28 -28 -29 -29 -29 -29 -29 -29 -29 -29 -29 -29 -29 -30 -30 -30 -30 -31 -31 -31 -32 -32 -32 -32 -33 -33 -33 -33 -33 -33 -33
-28 -28 -28 -28 -28 -28 -28 -28 -28 -28 -28 -28 -28 -29 -29 -29 -29 -29 -29 -29 -29 -29 -29 -29 -29 -30 -30 -30 -31 -31 -31 -32 -32 -32 -32 -32 -33 -33 -33 -33 -33 -33 -33
Height
5758 5755 5752 5748 5743 5740 5737 5731 5725 5720 5717 5715 5712 5708 5704 5700 5696 5691 5685 5681 5679 5675 5669 5664 5658 5651 5646 5642 5637 5631 5628 5628 5628 5627 5628 5629 5629 5630 5631 5629 5629 5630 5631
5749 5745 5740 5737 5733 5729 5722 5717 5712 5706 5702 5699 5696 5692 5689 5684 5680 5676 5672 5666 5662 5658 5653 5647 5642 5637 5630 5625 5623 5619 5615 5614 5615 5614 5614 5616 5615 5618 5619 5619 5621 5620 5618
5739 5733 5728 5724 5719 5715 5710 5705 5699 5693 5688 5685 5680 5676 5672 5667 5664 5660 5655 5653 5648 5642 5636 5629 5625 5621 5616 5610 5608 5606 5604 5601 5601 5601 5602 5603 5603 5602 5603 5605 5608 5608 5607
5724 5718 5714 5712 5707 5701 5695 5689 5685 5679 5674 5670 5666 5660 5655 5652 5649 5644 5639 5635 5629 5624 5619 5612 5607 5604 5600 5595 5593 5591 5590 5588 5588 5588 5589 5590 5590 5589 5588 5589 5592 5593 5593
5713 5703 5699 5698 5694 5686 5679 5675 5671 5666 5660 5654 5649 5646 5642 5639 5634 5628 5622 5617 5613 5606 5602 5597 5592 5588 5583 5580 5579 5578 5577 5575 5573 5574 5575 5576 5576 5575 5574 5574 5575 5576 5578
5698 5691 5687 5682 5678 5673 5666 5661 5656 5651 5645 5640 5635 5630 5626 5623 5619 5613 5607 5602 5596 5591 5586 5581 5577 5573 5570 5567 5566 5566 5563 5561 5560 5559 5559 5561 5561 5561 5560 5560 5561 5561 5564
5682 5678 5673 5667 5662 5657 5651 5645 5640 5633 5629 5625 5621 5616 5611 5606 5601 5595 5590 5586 5581 5576 5572 5568 5564 5561 5558 5556 5554 5553 5550 5548 5546 5544 5545 5545 5546 5545 5545 5546 5546 5546 5548
5668 5662 5658 5654 5649 5644 5637 5629 5623 5618 5617 5612 5607 5601 5596 5591 5586 5581 5575 5570 5566 5562 5559 5556 5553 5550 5547 5544 5542 5539 5536 5534 5531 5529 5528 5528 5529 5529 5528 5528 5529 5530 5532
5653 5647 5643 5640 5634 5628 5622 5617 5613 5609 5603 5597 5591 5585 5579 5575 5571 5565 5561 5557 5552 5549 5546 5543 5541 5538 5534 5531 5529 5525 5521 5518 5516 5513 5511 5511 5510 5510 5511 5511 5512 5512 5515
5641 5640 5632 5625 5619 5614 5607 5600 5597 5592 5586 5580 5574 5570 5565 5560 5556 5551 5546 5542 5540 5537 5533 5530 5527 5525 5522 5519 5515 5512 5507 5502 5499 5496 5494 5491 5490 5490 5491 5492 5492 5493 5496
5626 5622 5615 5608 5603 5595 5592 5587 5581 5574 5567 5563 5558 5554 5549 5545 5541 5538 5535 5531 5528 5524 5521 5519 5516 5513 5509 5506 5502 5499 5494 5489 5482 5477 5474 5472 5471 5470 5471 5473 5474 5474 5477
5611 5606 5600 5594 5589 5583 5576 5570 5564 5558 5551 5546 5541 5538 5535 5531 5528 5526 5524 5521 5517 5513 5511 5509 5506 5503 5500 5496 5491 5487 5483 5477 5470 5464 5462 5461 5459 5457 5457 5457 5458 5459 5462
5594 5588 5583 5577 5571 5565 5557 5551 5544 5538 5533 5529 5527 5524 5522 5519 5516 5514 5512 5509 5507 5505 5503 5500 5497 5495 5491 5487 5483 5480 5475 5469 5463 5458 5455 5453 5451 5449 5447 5446 5446 5448 5451
5576 5570 5564 5558 5552 5546 5540 5533 5527 5521 5518 5516 5513 5511 5509 5508 5507 5505 5502 5500 5498 5495 5494 5492 5490 5487 5484 5481 5478 5474 5469 5464 5460 5455 5450 5447 5445 5442 5441 5440 5440 5441 5444
5559 5554 5547 5540 5534 5529 5522 5516 5510 5508 5506 5502 5499 5499 5499 5498 5498 5496 5494 5491 5488 5487 5486 5485 5483 5480 5477 5474 5471 5468 5465 5460 5456 5452 5449 5445 5442 5439 5438 5437 5437 5437 5439
5543 5537 5531 5525 5519 5512 5505 5498 5497 5496 5494 5492 5490 5490 5490 5490 5490 5489 5486 5484 5483 5482 5481 5479 5476 5473 5469 5466 5463 5460 5457 5455 5452 5450 5447 5444 5441 5438 5436 5435 5435 5436 5436
5529 5524 5519 5512 5503 5494 5486 5480 5479 5481 5482 5482 5482 5482 5483 5484 5483 5482 5481 5480 5479 5477 5475 5473 5469 5466 5462 5459 5455 5453 5450 5448 5445 5443 5442 5440 5439 5437 5435 5433 5433 5433 5433
5519 5514 5507 5499 5489 5479 5469 5462 5464 5469 5472 5474 5476 5476 5477 5477 5477 5477 5476 5475 5474 5472 5470 5467 5463 5460 5456 5453 5449 5446 5442 5439 5436 5434 5433 5432 5432 5431 5430 5429 5428 5428 5428
5508 5502 5495 5488 5480 5472 5464 5460 5460 5463 5466 5469 5471 5472 5472 5473 5473 5473 5471 5470 5469 5467 5464 5462 5459 5455 5451 5447 5443 5438 5434 5430 5426 5424 5422 5422 5421 5421 5422 5422 5422 5422 5422
5499 5494 5488 5483 5477 5471 5466 5463 5462 5463 5465 5466 5467 5468 5469 5469 5469 5468 5467 5466 5464 5462 5460 5457 5454 5450 5446 5442 5437 5432 5427 5424 5420 5418 5416 5414 5413 5413 5413 5414 5414 5415 5415
5492 5488 5484 5480 5475 5471 5468 5465 5464 5463 5464 5464 5464 5465 5465 5465 5465 5464 5463 5462 5460 5458 5456 5453 5450 5445 5441 5437 5432 5427 5423 5420 5417 5415 5412 5410 5409 5408 5407 5406 5406 5407 5407
5485 5482 5479 5476 5472 5469 5466 5465 5464 5463 5462 5461 5462 5462 5462 5462 5461 5460 5460 5459 5457 5455 5452 5449 5446 5442 5438 5434 5429 5425 5421 5417 5414 5412 5410 5408 5406 5404 5403 5402 5401 5401 5401
5478 5475 5473 5470 5467 5465 5464 5463 5462 5460 5459 5459 5459 5459 5459 5458 5457 5457 5457 5456 5454 5452 5449 5446 5443 5439 5435 5431 5427 5423 5418 5415 5411 5408 5406 5404 5402 5400 5399 5398 5398 5397 5397
5470 5467 5465 5463 5462 5461 5460 5459 5458 5457 5456 5456 5456 5456 5456 5455 5455 5454 5454 5453 5450 5448 5445 5443 5439 5436 5432 5428 5424 5420 5416 5412 5409 5405 5403 5401 5399 5397 5395 5394 5393 5392 5392
5461 5459 5458 5457 5456 5455 5455 5454 5453 5453 5452 5452 5452 5452 5452 5452 5452 5451 5450 5448 5446 5444 5441 5439 5436 5432 5429 5425 5421 5417 5413 5409 5405 5402 5399 5396 5393 5391 5389 5388 5387 5386 5385
5454 5452 5451 5450 5449 5449 5448 5448 5448 5448 5448 5447 5448 5448 5448 5448 5448 5447 5446 5444 5442 5440 5437 5435 5431 5428 5425 5422 5418 5414 5410 5406 5402 5398 5393 5390 5387 5384 5382 5381 5379 5378 5376
Wind_Speed
46 48 51 54 54 52 54 58 59 56 55 50 52 54 55 56 53 54 54 53 54 57 66 69 63 57 56 55 51 50 48 48 46 43 44 40 37 34 35 39 42 44 45
46 49 54 56 55 55 58 60 57 57 55 54 53 56 58 58 59 54 53 53 59 67 72 63 57 56 55 53 53 49 46 45 44 45 46 45 42 40 38 37 37 39 41
48 53 56 56 57 59 63 63 57 55 56 57 57 59 61 62 57 54 53 59 65 73 66 60 58 57 54 55 53 50 48 45 44 43 44 45 45 46 45 41 38 36 37
49 56 57 57 60 63 63 62 56 57 59 60 58 58 62 57 53 56 60 67 66 63 63 58 60 58 56 54 50 46 47 46 45 45 45 45 44 46 46 46 45 43 42
49 59 61 60 61 60 51 56 58 59 61 63 58 61 61 58 58 61 64 61 60 60 60 58 58 56 53 48 45 44 43 43 45 45 45 46 45 45 45 45 46 46 44
56 61 62 65 63 61 59 60 58 61 65 65 62 60 59 55 63 61 59 59 61 58 58 55 53 51 43 41 40 39 39 41 45 46 48 49 48 48 48 47 47 47 47
62 66 63 62 62 62 59 61 67 71 69 61 59 60 61 58 60 61 58 58 57 55 53 50 44 39 40 40 40 40 42 44 45 46 46 47 47 49 50 51 51 51 50
69 65 59 62 60 63 64 67 76 54 53 58 61 61 61 64 62 58 58 56 52 51 49 42 41 40 41 41 42 43 45 48 48 48 49 51 51 52 53 53 53 53 52
63 63 62 65 62 70 73 53 59 66 69 63 62 65 67 63 60 58 54 50 49 46 43 43 44 42 42 41 43 46 47 49 50 51 52 54 55 54 54 55 54 56 54
56 63 65 64 63 75 71 71 75 74 69 69 69 64 61 58 55 51 49 46 44 41 39 40 42 43 44 45 43 44 46 48 50 52 55 57 58 58 57 56 57 57 57
64 64 64 73 67 74 72 77 77 74 72 69 63 59 54 52 49 45 42 40 39 39 39 38 35 34 35 38 39 42 42 44 46 48 48 47 47 46 45 44 46 49 51
60 62 65 67 70 74 74 71 71 69 66 62 57 51 49 48 43 39 37 35 32 31 31 32 33 34 35 35 35 28 29 32 32 30 29 28 29 30 33 35 36 38 41
61 63 65 66 66 67 68 66 65 64 61 56 50 47 45 41 36 33 31 29 29 32 32 33 31 29 29 30 22 21 23 27 27 21 21 22 24 25 27 29 27 25 25
63 64 64 64 65 64 63 64 63 61 55 51 48 46 40 33 31 30 28 31 33 33 31 26 24 25 25 27 23 22 21 23 26 24 20 20 20 18 17 18 18 20 22
62 63 62 60 60 60 61 61 58 50 40 41 41 34 30 30 28 26 29 30 28 23 20 20 24 28 28 27 28 26 24 22 23 24 22 21 19 16 15 14 17 20 22
56 54 53 53 53 57 59 58 52 41 39 38 30 26 26 24 22 23 20 16 14 16 19 24 26 25 26 26 27 28 29 28 25 22 20 18 16 15 14 13 13 16 19
49 46 46 51 55 59 60 57 50 39 31 26 23 21 20 18 19 17 16 16 16 18 21 22 25 26 26 28 29 30 30 29 28 28 25 22 17 14 11 10 10 10 11
36 40 47 50 50 49 46 37 27 24 20 19 18 17 16 16 13 13 14 16 18 19 20 21 22 24 25 26 27 28 29 30 31 31 29 28 26 22 19 16 14 13 12
36 41 40 36 33 25 17 10 11 12 13 14 14 13 14 11 10 12 15 16 16 17 18 19 20 21 22 23 25 28 28 27 27 27 27 28 29 29 27 24 22 20 20
32 32 28 24 21 17 12 8 5 7 10 10 10 11 9 8 11 13 14 14 14 15 17 17 18 20 21 23 25 27 25 22 21 20 19 18 20 22 25 26 26 25 24
23 23 22 17 19 17 11 7 9 6 7 10 10 9 8 10 11 12 11 13 13 14 15 16 18 20 22 23 25 25 23 20 18 17 17 16 16 15 16 17 18 20 22
22 22 22 22 23 18 16 10 8 9 11 10 10 10 10 10 10 9 10 10 11 12 14 16 18 20 21 23 24 24 23 21 19 18 17 17 17 15 14 14 14 14 14
25 24 23 21 20 15 9 10 12 12 12 10 11 11 10 10 9 9 8 9 10 12 14 17 18 20 22 22 23 23 23 22 20 19 18 17 17 16 16 15 12 11 10
29 27 24 20 15 13 15 15 13 13 11 11 11 11 10 9 9 9 9 9 11 14 16 17 18 20 22 23 23 23 23 22 21 20 19 18 17 17 17 17 16 17 19
27 25 22 20 19 20 19 17 16 15 13 13 13 11 11 11 10 10 10 12 14 16 17 18 18 20 21 23 23 23 24 24 22 21 21 21 22 22 21 21 23 26 29
23 23 20 19 20 21 22 22 20 18 16 15 14 13 12 12 12 11 11 13 15 16 17 18 19 20 21 22 23 24 24 24 24 24 23 21 19 18 18 19 19 20 21
Wind_Direction
281 282 284 287 294 300 302 304 303 297 298 296 289 285 283 281 280 282 283 289 290 289 294 300 307 299 292 291 288 284 281 277 277 278 280 279 278 274 270 269 271 270 269
282 284 284 287 296 302 304 302 299 299 298 296 293 290 286 286 285 284 285 291 293 295 301 305 299 292 290 287 288 282 281 278 276 280 271 274 278 277 274 273 271 269 267
285 285 285 294 300 302 301 299 297 296 297 298 298 295 291 290 292 292 294 296 294 298 304 302 295 292 292 287 284 280 278 277 276 277 277 278 275 275 274 272 270 269 266
289 288 292 298 300 299 298 296 294 296 300 302 299 294 292 291 295 295 295 295 302 305 305 298 296 295 293 288 282 279 276 274 274 275 276 276 276 275 275 275 272 270 268
294 293 296 300 298 296 289 293 296 299 299 297 295 295 294 292 294 294 295 301 303 303 300 296 296 294 290 284 281 279 277 275 275 275 274 274 275 275 274 275 274 271 269
290 292 297 299 298 297 294 294 295 295 296 294 297 297 294 291 289 295 302 306 301 298 298 297 293 290 286 284 285 282 281 278 276 276 275 274 273 272 273 273 272 270 269
294 296 298 298 296 295 292 290 289 284 290 293 295 294 292 295 296 304 303 299 298 297 296 294 289 288 287 285 283 282 283 281 279 277 275 273 272 272 272 271 270 268 268
297 295 296 294 292 289 292 288 282 282 292 291 290 295 295 298 306 303 299 297 295 294 293 290 287 287 290 287 286 284 283 280 278 278 277 275 273 271 271 270 268 267 264
297 285 294 292 293 290 282 284 292 292 294 295 292 295 304 304 300 295 295 294 293 292 290 286 285 287 286 284 285 285 285 282 281 280 278 276 274 272 271 269 268 266 263
290 283 287 287 287 288 290 297 295 294 290 296 302 302 298 295 293 293 293 293 291 291 290 288 287 285 286 286 288 288 287 287 285 282 280 277 275 273 272 270 268 266 262
284 285 285 281 279 285 287 285 289 295 299 299 297 294 293 291 290 290 288 287 288 288 289 292 293 293 294 294 294 293 289 291 290 286 282 279 277 272 268 266 265 264 259
281 279 277 280 282 284 288 291 295 296 294 293 293 291 289 288 288 287 286 288 290 290 292 294 295 295 295 298 301 300 304 310 307 292 286 283 282 278 273 272 271 262 251
279 281 283 284 288 292 296 295 293 292 291 291 290 287 284 287 285 285 285 287 287 291 292 294 294 293 305 310 304 310 322 332 333 311 297 291 286 283 279 274 269 259 250
284 287 292 296 298 297 294 291 289 289 291 292 288 283 287 285 284 282 286 291 292 291 289 287 293 299 305 306 309 313 324 331 338 343 329 304 293 293 288 274 265 262 258
292 295 298 297 294 291 288 288 288 294 296 286 285 286 284 280 280 288 294 294 294 287 281 284 292 300 302 300 300 303 306 314 322 329 334 335 329 315 298 289 277 266 258
298 296 292 291 294 294 291 289 291 288 286 289 288 276 275 274 284 291 296 301 303 294 286 292 299 302 306 304 301 300 298 297 299 304 309 313 318 317 311 298 276 259 251
295 292 295 302 302 300 297 291 283 278 277 281 272 271 269 277 285 286 295 298 300 298 297 300 303 306 305 303 301 300 296 292 289 282 282 287 286 287 286 279 273 262 251
293 301 306 306 304 305 300 292 278 270 267 263 264 266 273 278 278 288 294 300 301 303 306 308 310 309 308 307 306 303 299 294 287 280 275 269 267 267 265 265 263 263 262
305 308 309 312 310 317 320 294 265 255 252 256 259 269 273 268 281 293 299 302 306 309 311 313 315 317 318 318 318 317 313 307 299 292 284 276 269 265 262 260 263 266 266
309 311 308 314 320 317 317 307 275 262 259 256 268 268 259 272 292 297 301 308 311 315 318 322 325 327 329 331 333 330 326 324 318 313 311 302 292 285 279 273 272 272 271
305 319 312 318 326 323 320 313 297 265 271 278 266 253 262 286 293 299 306 311 316 321 326 331 335 339 339 341 343 338 331 330 326 324 324 321 314 306 295 287 280 276 274
296 302 311 314 313 304 299 292 299 292 290 281 254 252 274 285 291 301 308 314 323 331 334 340 343 344 345 346 348 345 337 330 323 321 317 317 315 316 310 302 296 291 286
302 291 288 296 308 295 279 289 297 296 287 268 248 261 274 282 291 300 305 311 323 331 336 340 343 344 345 346 347 347 343 335 330 326 320 313 310 311 308 305 296 287 287
297 293 289 284 277 267 271 278 291 296 284 265 257 264 272 276 282 285 295 310 323 328 330 330 335 341 342 342 342 343 344 341 329 324 321 318 314 305 299 291 280 283 288
293 288 283 273 264 260 263 272 280 288 286 268 259 262 266 271 272 280 292 306 319 323 326 327 329 333 336 338 338 338 339 341 337 328 320 311 304 299 293 287 282 280 284
292 287 279 276 271 267 267 268 273 279 274 262 257 261 262 264 271 281 293 305 317 322 324 327 328 328 328 331 333 334 336 337 338 336 330 323 317 312 307 301 297 295 294